KOMPSAT-3A (40536 NORAD) Tracking and Keplerian Element Data

This shows tracking and keplerian element data for the satellite.

Feedback or suggestion? Click here.




ElementValue
Catalog40536
NameKOMPSAT-3A
Epoch Orbit54509
Epoch Day35.15204077
Epoch Year2025
RAAN356.1638
Inclination97.6423
Eccentricity0.0002679
Argument of Perigee153.1856
Mean Anonmoly206.9523
Mean Motion15.31476801
Decay Rate0.000196
L11 40536U 15014A 25035.15204077 .00019600 00000+0 64644-3 0 9992
L22 40536 97.6423 356.1638 0002679 153.1856 206.9523 15.31476801545092



Live tracking and technical data element details for KOMPSAT-3A (NORAD 40536). KOMPSAT-3A can be tracked NOW for your location showing map with azimuth and elevation plus other details from your city location.







IsCatalogInMostPopularTable: catalog: 40536, numindb: 386
Update: records affected: 1



GetName: 40536 KOMPSAT-3A

Hit Count: updated at: Thu, 15 May 2025 10:38:08 GMT